Regional Weather Roundup
Issued by NWS Grand Forks, ND

Home | Current Version | Previous Version | Graphics & Text | Print | Product List | Glossary On
Versions: 1 2 3 4 5 6 7 8 9 10 11 12 13 14 15 16 17 18 19 20 21 22 23 24 25 26 27 28 29 30 31 32 33 34 35 36 37 38 39 40 41 42 43 44 45 46 47 48 49 50
000
ASUS43 KFGF 200510
RWRFGF
PRAIRIE TO PINES  WEATHER ROUNDUP
NATIONAL WEATHER SERVICE EASTERN NORTH DAKOTA/GRAND FORKS ND
1200 AM CDT FRI APR 20 2018

 **SATELLITE DATA USED TO AUGMENT SKY COVER AT AUTOMATED STATIONS**
 *****  WEATHER ACROSS EASTERN NORTH DAKOTA  *****

CITY           SKY/WX    TMP DP  RH WIND       PRES   REMARKS
GRAND FORKS    FAIR      34  32  92 S6        30.37F
GRAND FRKS AFB FAIR      37  32  82 CALM      30.37S
GRAND FRKS NWS   N/A     37  32  82 SW2       30.35S
DEVILS LAKE    FAIR      33  31  92 CALM      30.37R
FARGO          FAIR      38  32  79 SE6       30.38S
WAHPETON ARPT  FAIR      39  32  75 S3        30.41R
$$

 ***** WEATHER ACROSS CENTRAL AND WESTERN NORTH DAKOTA  *****

CITY           SKY/WX    TMP DP  RH WIND       PRES   REMARKS
BISMARCK       FAIR      38  31  76 E3        30.34S
MINOT          FAIR      37  33  85 CALM      30.32F
JAMESTOWN      FAIR      37  31  78 S8        30.36R
MINOT AFB      FAIR      32  32  99 S5        30.31F
GARRISON         N/A     35  33  92 E8        30.31F
WILLISTON      FAIR      39  34  82 E10       30.28F
DICKINSON      FAIR      35  29  78 E10       30.24F
HETTINGER      FAIR      40  28  62 SE12      30.26F
$$

 *****  OTHER AIRPORT OBSERVATIONS IN OUR AREA  *****

CITY           SKY/WX    TMP DP  RH WIND       PRES   REMARKS
WALHALLA       FAIR      34  36 100 S3        30.36S
GRAFTON AIRPOR FAIR      34  32  93 SW7       30.39R
VALLEY CITY AR FAIR      36  32  87 S8        30.39S
CANDO          FAIR      36  36 100 SW5       30.37S
CAVALIER APRT    N/A     39  34  81 SW7       30.36S
GWINNER          N/A     36  32  87 SW8       30.39S
SHEYENNE NWR     N/A     38  35  87 W3        29.95S
ROLLA          FAIR      34  34 100 SW3       30.34S
 ***** THE ABOVE OBSERVATIONS ARE NON NWS ARE NOT QUALITY
       CONTROLLED AND MAY MIS-REPORT RAIN FOR SNOW...
$$

  *****  WEATHER ACROSS NORTHERN MINNESOTA  *****

CITY           SKY/WX    TMP DP  RH WIND       PRES   REMARKS
FLAG ISLAND    FAIR      30  19  64 S6        30.36R WCI  24
WARROAD        FAIR      36  28  75 SW3       30.38S
ROSEAU         FAIR      39  32  75 CALM      30.38R
HALLOCK        FAIR      37  34  87 S7        30.37R
THF RVR FALLS  FAIR      38  30  73 CALM      30.39S
BAUDETTE       FAIR      32  24  72 CALM      30.36S
WASKISH        FAIR      28  21  74 CALM      30.38R
CROOKSTON      FAIR      39  34  81 CALM      30.39S
STEPHEN NDAWN    N/A     37  34  87 S3          N/A
GREENBUSH NDAW   N/A     37  30  75 S3          N/A
$$
  *****  WEATHER ACROSS CENTRAL AND WEST MINNESOTA  *****

CITY           SKY/WX    TMP DP  RH WIND       PRES   REMARKS
FOSSTON        FAIR      30  12  47 CALM      30.39S
BEMIDJI        FAIR      32  21  64 CALM      30.39R
PARK RAPIDS    FAIR      37  25  61 CALM      30.39R
ELBOW LAKE     FAIR      32  29  87 S7        30.43R
WADENA         FAIR      36  28  75 SW6       30.40F
DETROIT LAKES  FAIR      36  30  80 CALM      30.41R
MOORHEAD       FAIR      41  28  60 SE7       30.40R
FERGUS FALLS   FAIR      36  30  80 S7        30.40R
MORRIS MN      FAIR      34  30  86 S6        30.42S
STAPLES        FAIR      36  25  64 SW6       30.41S
$$
  *****  WEATHER ELSEWHERE ACROSS MINNESOTA  *****

CITY           SKY/WX    TMP DP  RH WIND       PRES   REMARKS
DULUTH         FAIR      39  17  41 W8        30.38S
INTRNTL FALLS  FAIR      29  19  66 CALM      30.37R
ELY            FAIR      27  19  74 CALM      30.37S
CLOQUET        FAIR      39  12  33 W5        30.39S
WHEATON        NOT AVBL
BRAINERD       FAIR      35  21  56 SW6       30.41R
HIBBING        FAIR      25  18  74 CALM      30.37S
ALEXANDRIA     FAIR      37  25  61 S6        30.42F
SAINT CLOUD    FAIR      32  28  85 CALM      30.43S
MINNEAPOLIS    FAIR      40  24  53 SW3       30.45S
$$

  *****  WEATHER ACROSS SOUTH DAKOTA  *****

CITY           SKY/WX    TMP DP  RH WIND       PRES   REMARKS
SIOUX FALLS    MOCLDY    32  25  75 E6        30.44R
BROOKINGS      FAIR      31  28  89 SE6       30.43S
WATERTOWN      FAIR      32  28  85 S6        30.41R
HURON          FAIR      35  28  75 SE7       30.41S
SISSETON         N/A     40  30  67 SW9       30.40R
ABERDEEN       FAIR      33  27  78 S5        30.41R
MITCHELL       FAIR      33  29  85 SE9       30.42S
PIERRE         FAIR      37  29  72 SE15      30.31F
MOBRIDGE       FAIR      40  29  64 SE9       30.31F
RAPID CITY     FAIR      43  31  62 SE14      30.18S
$$

  *****  SOME WEATHER IN NEARBY STATES *****

CITY           SKY/WX    TMP DP  RH WIND       PRES   REMARKS
GLASGOW MT     FAIR      45  35  68 E20       30.16S
GREAT FALLS MT FAIR      42  31  64 CALM      30.05F
CHEYENNE WY    FAIR      42  24  49 SE18G32   30.04R
SCOTTSBLUFF NE FAIR      46  28  49 SE26G33   30.10S
OMAHA NE       FAIR      45  26  47 E7        30.41R
DES MOINES IA  FAIR      41  26  55 NE8       30.45R
DAVENPORT IA   FAIR      33  25  72 NE6       30.47S
CHICAGO IL     FAIR      40  23  50 NW7       30.43R
EAU CLAIRE WI  FAIR      30  22  72 SW3       30.43S
LA CROSSE WI   FAIR      32  27  81 CALM      30.46R
$$

  *****  SOME NATIONAL WEATHER *****

CITY           SKY/WX    TMP DP  RH WIND       PRES   REMARKS
LA GUARDIA NY  FAIR      40  24  53 NW18      30.02R
RALEIGH NC     FAIR      45  29  53 VRB6      30.23R
ATLANTA GA     FAIR      50  33  52 N12       30.18R
NEW ORLEANS LA FAIR      61  44  53 N10G22    30.21R
OKLAHOMA CITY  FAIR      50  33  52 E14       30.29F
ALBUQUERQUE NM MOCLDY    61  26  26 SE32G46   29.88F
SALT LAKE CITY MOCLDY    51  31  46 W8        29.73F
LOS ANGELES CA FAIR      56  50  80 W9        30.03R
BOISE ID       FAIR      55  28  35 NW16      29.97R
SEATTLE WA     FAIR      52  37  56 N8        30.26R
$$

*** WEATHER ACROSS MANITOBA...SASKATCHEWAN AND ONTARIO ***
                ***ONTARIO***

CITY           SKY/WX    TMP DP  RH WIND       PRES   REMARKS
GERALDTON      MOCLDY    25  18  74 CALM      30.34R
THUNDER BAY    PTCLDY    28  23  80 W5        30.37R WCI  23
SIOUX LOOKOUT  CLEAR     27  16  63 CALM      30.34R
TORONTO        CLEAR     32  21  64 N15G22    30.21R WCI  22
BIG TROUT LK   CLEAR     34  23  64 NE5       30.36R
PICKLE LAKE    NOT AVBL
DRYDEN         CLEAR     41   9  26 W5        30.35R
KENORA         CLEAR     43  10  26 S7        30.35R
$$
                *** MANITOBA***

CITY           SKY/WX    TMP DP  RH WIND       PRES   REMARKS
BRANDON        MOCLDY    37  30  75 NE7       30.34F
DAUPHIN        CLEAR     32  27  80 SW5       30.35S
ISLAND LAKE    NOT AVBL
PILOT MOUND      N/A     36  32  87 S3          N/A
THE PAS        CLEAR     30  21  69 SE5       30.29S
THOMPSON       PTCLDY    39  19  45 S5        30.29S
WINNIPEG       MOCLDY    41  32  70 NE5       30.36R
LYNN LAKE      CLEAR     39  21  48 S6        30.16S
CHURCHILL      PTCLDY    30  25  80 SE14      30.28S WCI  20
GILLAM         CLEAR     37  19  48 S8        30.33S
$$
                ***SASKATCHEWAN***

CITY           SKY/WX    TMP DP  RH WIND       PRES   REMARKS
ESTEVAN        PTCLDY    32  28  86 E7        30.30F
KINDERSLEY     PTCLDY    43  34  70 SE20G28   30.11R
LLOYDMINSTER   CLEAR     37  32  81 S12       30.04F
PRINCE ALBERT  PTCLDY    37  28  70 S8        30.24S
REGINA         PTCLDY    36  28  75 SE13      30.28S
YORKTON        CLEAR     32  25  74 S3        30.32F
N. BATTLEFORD  CLEAR     41  28  60 SE20      30.14F
LA RONGE       CLEAR     43  27  52 S9        30.16S
SASKATOON      PTCLDY    39  32  75 SE14      30.22S
SWIFT CURRENT  CLEAR     37  32  81 SE16      30.16F
$$
NOTE: THESE ARE AUTOMATED STATIONS WITH LIMITED QUALITY CONTROL
      "FAIR" INDICATES FEW OR NO CLOUDS BELOW 12,000 FEET WITH NO
      SIGNIFICANT WEATHER AND/OR OBSTRUCTIONS TO VISIBILITY.
      SKY/WX - SKY CONDITION AND SIGNIFICANT WEATHER.
      TMP - AIR TEMPERATURE.    DP   - DEWPOINT TEMPERATURE.
      RH  - RELATIVE HUMIDITY.  PRES - PRESSURE.
      HX  - HEAT INDEX.         WCI  - WIND CHILL INDEX.
$



USA.gov is the U.S. government's official web portal to all federal, state and local government web resources and services.